Weather in Falenki

Russia / Kirov Oblast     58°21′31″N   51°35′32″E
temp.,
°C
wind,
m/s
gust,
m/s
humid.,
%
clouds,
%
prec.,
mm/h
press.,
hPa
HPBL,
m
21 april, wed
wed2100:00+1sse33651 0.0 103139
03:000se36653 0.0 103185
06:00+2se4105768 0.0 1030278
09:00+8sse71138100 0.0 1028946
12:00+10sse81134100 0.0 10261272
15:00+9sse71344100 0.0 10261184
18:00+8sse81447100 0.0 10241060
21:00+6s81651100 0.0 10241014
22 april, thu
thu2200:00+3sse81693100 1.1 1023895
03:00+3sse81596100 1.3 1022715
06:00+3s81496100 0.1 1021749
09:00+4s71493100 0.1 1023677
12:00+6s61084100 0.0 1024905
15:00+8s6974100 0.2 10241105
18:00+7sse71283100 0.0 1024776
21:00+6s71387100 0.1 1025708
23 april, fri
fri2300:00+5s61291100 0.0 1024453
03:00+5s51093100 0.0 1025419
06:00+5s4794100 0.0 1026287
09:00+6s4588100 0.0 1026453
12:00+8s3478100 0.1 1026806
15:00+8s3477100 0.1 1026504
18:00+7se2486100 0.1 1026134
21:00+6se3790100 0.1 1026213
24 april, sat
sat2400:00+5ese4792100 0.0 1025229
03:00+4ese3791100 0.0 1024215
06:00+4ese498587 0.0 1024401
09:00+7e6769100 0.0 1021901
12:00+9e5663100 0.0 10191114
15:00+9e5665100 0.0 10171160
18:00+7e4779100 0.0 1016534
21:00+6ese3695100 0.4 1014408
25 april, sun
sun2500:00+6ese3795100 0.3 1012446
03:00+5se3696100 0.4 1011317
06:00+5se3594100 0.1 1009719
09:00+5se4794100 0.6 1007386
12:00+7sse4689100 1.1 10061081
15:00+5wsw5119199 5.3 1008854
18:00+7wsw6116818 0.4 1009493
21:00+3sw49803 0.8 1010169